Presure
172 167 196 196 207 211 215 200 163 197 199 199 178 156 187 124 142 193 162 203 143 200 225 217 161 220 210 221 206 216 115 220 221 221 216 231 233 229 296 330 316 265 238 243 218
174 212 197 209 209 190 201 188 202 199 190 196 179 183 193 204 169 213 198 210 220 179 182 199 214 201 207 201 204 200 196 212 199 226 220 225 228 249 321 302 275 257 231 236 234
142 193 212 149 201 216 209 222 185 197 201 205 196 195 153 187 201 203 210 222 206 219 118 213 205 200 198 200 199 198 215 198 198 195 192 221 228 282 315 289 257 251 223 223 237
213 213 198 150 198 190 225 206 190 201 209 196 204 192 204 194 172 201 205 212 210 198 194 216 195 195 193 189 193 192 187 207 211 214 186 219 214 291 317 276 248 243 216 216 214
196 173 199 203 204 216 163 171 170 178 201 180 197 172 170 197 201 198 196 197 189 195 192 209 190 196 201 198 196 200 193 188 195 216 201 220 209 285 300 268 247 234 225 213 201
141 174 182 177 210 172 174 212 208 219 175 161 196 191 181 187 193 187 197 189 194 201 191 208 191 203 190 191 194 202 215 212 214 211 178 212 209 233 287 267 244 225 212 207 210
189 204 215 154 179 158 150 217 222 191 158 202 196 205 190 182 191 201 194 159 167 182 159 187 191 182 173 193 211 196 201 184 205 233 194 211 210 242 286 272 249 223 220 211 202
188 216 200 207 188 222 196 204 211 146 213 212 208 201 156 173 198 193 182 156 196 189 183 189 197 196 187 213 205 195 186 204 206 176 216 208 212 217 290 276 253 222 226 209 216
207 223 198 174 204 173 220 133 209 208 212 211 198 208 184 196 193 191 188 192 174 185 196 183 191 180 195 205 196 202 193 187 196 210 183 213 211 199 281 263 256 228 229 214 234
227 238 231 211 245 250 233 226 202 172 202 214 207 188 205 199 199 200 191 193 190 191 184 190 190 180 196 178 202 192 195 173 187 210 208 208 208 199 208 238 253 225 226 233 234
207 225 211 217 265 251 240 218 211 214 169 216 197 183 192 200 188 202 195 196 191 191 194 206 191 187 183 202 199 189 187 197 193 188 170 188 211 190 201 243 258 230 204 220 218
207 220 210 247 254 249 242 231 202 225 215 235 207 191 204 212 201 193 185 191 193 196 198 203 179 195 197 179 203 194 192 202 178 192 204 187 202 201 210 197 281 282 231 222 223
215 219 265 247 241 252 237 232 233 217 219 216 228 197 203 196 186 195 201 195 187 184 188 188 196 193 190 198 197 201 197 191 194 197 197 194 173 183 211 199 239 255 271 240 229
258 262 247 248 231 248 235 234 235 221 217 208 207 214 208 211 201 195 200 194 201 199 198 199 192 192 192 188 199 198 197 188 193 187 196 175 197 198 207 206 210 258 251 272 268
272 271 259 263 244 243 242 230 225 220 121 223 211 209 219 211 206 201 192 210 197 197 189 152 201 194 185 188 197 189 184 199 176 184 202 197 189 175 195 212 208 288 244 269 272
245 253 271 270 245 236 246 232 240 224 231 224 215 212 218 218 215 83 214 204 190 197 200 197 200 190 190 191 201 196 196 181 178 168 195 193 182 190 201 196 190 221 264 234 273
241 264 234 257 259 220 248 232 234 237 213 222 231 219 217 215 213 210 208 207 207 209 195 191 197 192 199 189 194 194 192 197 185 184 189 189 187 176 190 190 192 190 245 253 233
230 236 226 242 259 250 240 232 229 233 226 210 178 87 106 109 211 208 208 204 206 198 195 194 190 193 186 188 201 210 188 183 194 175 182 188 192 199 173 197 192 172 212 256 256
267 263 250 262 249 234 260 260 208 228 237 236 236 236 230 221 216 212 205 214 211 199 203 201 203 198 192 199 197 204 206 192 176 191 191 185 185 197 186 194 190 183 183 207 224
280 270 261 265 256 259 234 238 149 120 185 174 173 229 228 203 145 147 152 213 202 219 219 206 207 197 206 209 203 204 191 192 189 190 197 183 182 193 185 182 191 181 180 188 197
290 290 263 275 265 267 256 86 208 260 252 258 255 238 234 213 175 223 210 211 211 206 204 206 215 200 194 203 196 191 190 185 193 191 204 200 189 197 184 177 190 193 180 185 179
274 293 284 282 288 278 148 269 264 258 284 254 261 262 263 112 231 232 215 205 215 203 206 206 210 199 197 191 185 201 187 198 193 195 198 202 208 217 188 188 191 178 190 180 185
287 279 273 284 297 174 199 284 279 271 267 273 263 273 250 267 267 243 147 223 217 212 212 202 201 203 202 202 196 198 188 195 185 201 204 194 191 212 189 179 194 191 187 174 185
293 284 282 285 287 276 275 272 278 279 288 89 295 136 271 264 148 108 110 267 231 226 212 215 208 204 193 200 196 202 193 193 198 193 194 200 203 208 197 183 183 192 186 183 186
283 286 278 281 130 271 268 271 223 271 272 277 279 276 279 287 296 293 285 256 277 288 219 220 222 210 199 199 207 206 205 203 199 202 211 208 203 212 202 194 183 182 183 181 184
372 300 270 276 278 281 277 272 272 280 283 284 290 336 348 302 298 286 284 285 287 288 278 278 287 240 221 212 213 213 207 215 212 214 204 214 203 225 212 202 187 175 188 199 185
388 394 381 333 303 190 412 373 353 300 301 304 206 340 335 274 333 337 362 330 323 290 291 300 293 279 286 248 236 221 220 214 228 229 234 218 223 237 215 203 197 188 179 188 191
Wind_Speed
84 64 69 72 68 70 67 74 74 75 73 74 70 69 76 68 74 71 72 66 74 67 47 51 66 39 40 36 40 40 47 48 48 46 50 46 44 45 46 17 23 24 25 32 24
87 70 67 67 71 77 72 78 72 73 75 74 70 76 75 64 73 50 68 55 42 53 53 55 44 46 38 36 39 43 47 43 43 43 44 45 43 51 25 15 23 28 27 37 34
64 78 70 67 69 73 74 73 78 74 69 67 70 71 75 75 66 55 47 36 42 39 58 39 43 44 42 40 41 43 45 42 44 41 37 43 42 50 12 14 31 28 31 37 47
81 71 66 70 70 74 79 74 74 73 73 69 69 70 60 70 73 54 50 40 38 47 55 40 44 46 45 46 43 43 42 49 45 44 35 41 39 46 8 15 30 27 33 44 45
71 75 82 68 71 77 78 69 82 72 74 69 68 74 69 66 60 56 56 52 56 49 51 43 45 43 45 45 45 47 46 42 44 43 37 37 39 39 6 16 30 31 38 46 45
64 86 85 78 72 69 82 74 79 80 77 73 72 71 71 74 66 66 60 61 52 47 47 41 48 49 44 43 44 49 44 42 43 40 27 37 37 40 23 20 30 33 38 47 54
61 76 85 85 86 69 62 83 83 71 62 74 71 73 69 80 67 59 62 62 63 55 57 48 46 46 47 45 41 43 38 35 42 36 32 32 35 43 21 24 35 38 40 45 57
70 85 76 80 87 79 71 80 84 69 79 76 72 73 74 75 65 65 65 65 56 54 57 48 44 49 44 41 40 38 37 41 42 34 39 34 32 29 17 23 35 41 46 39 67
82 88 76 81 80 78 78 71 80 78 78 76 68 67 74 75 69 67 66 65 60 56 54 54 48 51 49 45 42 40 41 36 40 39 32 31 28 21 27 17 34 44 44 40 61
95 90 86 81 81 82 84 84 76 64 79 83 74 66 70 72 69 67 66 63 62 56 55 55 49 53 47 44 44 39 39 38 41 40 37 33 24 22 24 19 32 42 43 50 50
83 88 81 82 77 77 84 86 82 78 60 83 79 71 72 72 70 64 64 64 65 58 58 56 52 54 42 45 44 38 31 33 38 36 31 25 28 24 21 23 29 44 26 52 46
83 85 79 80 76 77 82 83 77 76 75 80 77 77 82 73 62 67 64 63 62 63 56 53 54 48 43 49 44 40 37 36 34 34 37 26 27 24 24 21 25 29 47 42 57
83 87 75 78 76 77 76 78 78 79 74 76 74 76 85 69 67 68 66 67 65 58 56 53 56 47 41 44 44 42 37 31 29 32 35 31 20 26 24 22 25 21 29 50 52
77 78 80 78 79 76 77 76 76 77 72 72 71 73 80 77 68 77 67 68 65 64 62 51 56 53 42 45 43 42 34 28 29 29 31 32 33 31 25 18 23 21 20 24 21
71 75 78 80 83 80 81 80 77 77 36 71 65 72 77 84 75 79 73 71 64 65 56 35 58 52 38 50 43 46 26 33 31 26 38 32 34 27 26 20 17 20 16 14 20
78 77 71 80 81 78 87 81 82 80 71 73 70 74 76 78 78 20 78 72 64 66 63 58 60 51 52 52 48 50 39 30 32 34 28 30 31 37 34 19 11 20 14 14 15
82 74 77 78 85 75 86 80 81 78 75 75 76 75 80 78 80 77 78 73 71 69 58 58 58 54 55 47 51 52 36 36 33 28 27 29 31 30 37 28 14 11 17 14 13
83 82 79 83 83 87 86 83 75 78 81 72 60 22 28 28 83 81 74 71 74 69 63 62 61 63 56 54 61 55 29 31 38 30 30 30 34 35 26 29 24 20 18 17 13
82 80 78 83 85 81 84 89 56 79 85 87 86 90 85 86 89 86 75 78 79 70 71 69 67 71 68 69 63 54 48 42 35 32 34 27 30 36 34 32 27 18 13 16 14
87 84 83 85 84 87 80 78 43 33 59 59 64 95 91 79 51 54 55 76 69 74 75 70 70 65 71 68 56 50 44 40 35 39 41 31 30 38 34 34 28 25 19 20 20
84 86 85 90 88 89 81 17 69 87 88 89 98 100 93 80 66 84 76 75 78 72 66 67 70 68 62 56 52 46 45 45 50 38 46 40 32 38 38 32 33 24 22 19 24
76 80 87 91 89 87 29 84 84 82 90 85 91 93 102 44 93 90 81 78 83 74 74 71 70 65 67 62 53 63 48 59 37 43 50 41 45 32 41 35 37 34 24 24 22
78 74 76 88 81 41 54 83 83 82 84 85 86 88 88 92 101 96 37 93 89 81 82 73 66 70 76 75 62 63 50 60 54 57 60 47 43 35 43 41 37 35 31 32 26
77 74 73 76 72 66 70 70 69 73 77 17 83 36 87 88 46 26 20 97 100 95 84 89 76 70 60 75 75 82 73 70 75 53 57 49 45 45 47 45 42 36 36 34 32
69 65 67 65 37 67 68 69 55 72 72 73 72 79 79 77 80 78 82 84 84 85 84 92 94 79 69 75 86 82 80 81 72 65 60 60 50 56 47 50 45 41 41 41 38
71 67 63 62 67 69 67 63 66 72 73 73 68 64 59 68 71 74 75 76 76 81 85 92 88 105 93 84 88 89 82 88 86 83 53 74 52 56 56 51 49 46 44 41 42
47 41 47 58 54 32 33 39 44 61 59 57 33 50 44 37 46 44 45 59 63 73 75 75 81 82 76 94 103 96 90 86 87 89 80 59 55 59 61 52 47 50 45 45 46
Wind_Direction
265 266 265 262 269 266 262 264 262 265 267 266 266 267 275 263 264 277 274 281 269 284 287 291 283 297 291 306 296 315 281 309 309 306 306 311 315 312 318 292 236 221 213 189 233
259 278 269 270 266 264 265 264 265 264 267 268 268 271 272 276 272 278 279 281 282 279 280 287 298 294 296 293 299 300 293 311 307 305 313 317 317 328 321 270 210 202 206 186 183
264 275 275 261 267 267 266 262 265 269 266 266 269 271 264 274 277 276 281 282 277 287 270 294 294 293 295 297 298 303 314 307 302 302 306 319 324 328 304 263 209 205 206 193 178
284 283 269 268 264 264 263 268 262 266 265 268 268 270 271 274 273 279 279 276 273 280 284 285 285 292 294 294 298 303 297 313 315 316 307 321 320 327 285 251 214 215 201 190 191
280 277 274 275 269 265 267 266 266 264 266 264 266 268 268 272 272 277 276 275 278 281 285 288 286 290 292 299 297 302 303 308 309 314 316 323 317 326 304 262 214 212 199 197 208
264 259 268 258 275 259 265 265 264 261 264 259 263 267 269 272 273 275 273 277 278 280 279 285 290 291 292 297 300 301 311 312 314 314 301 322 316 334 296 249 211 213 202 206 201
271 281 274 269 268 263 260 264 261 260 262 265 265 265 268 268 272 268 271 266 271 275 276 283 285 285 285 295 297 300 304 298 317 315 315 321 312 339 291 249 208 215 211 206 211
264 277 273 271 265 268 267 261 263 255 262 260 260 260 259 265 267 269 272 267 272 279 281 283 286 290 292 293 295 296 293 311 317 296 316 318 308 349 313 268 214 215 221 217 205
280 279 271 254 271 266 260 251 258 265 261 262 260 258 261 263 264 264 266 270 270 274 275 279 279 285 291 291 292 294 293 296 306 317 307 317 314 322 332 274 225 229 233 228 214
278 274 272 272 262 255 256 255 265 251 260 261 261 256 256 258 258 257 262 265 268 271 275 274 277 278 282 282 288 291 292 278 296 317 315 310 317 329 334 312 230 238 246 235 229
275 275 273 275 252 253 252 260 262 260 251 253 255 259 256 258 259 256 259 262 267 271 268 271 274 273 280 283 282 287 291 298 298 301 291 304 328 309 326 320 246 233 262 255 250
274 274 274 265 253 252 252 253 259 256 258 249 255 256 257 253 255 257 260 263 265 265 269 272 266 272 276 275 279 281 288 297 290 299 310 303 312 316 329 321 304 270 245 249 249
272 274 248 257 257 249 251 252 252 255 256 255 248 253 255 256 258 260 258 260 259 263 266 263 264 267 273 277 278 280 286 285 293 308 300 305 292 300 321 311 326 298 268 250 247
256 251 254 253 262 246 249 249 246 252 253 254 252 248 252 255 255 256 253 256 258 258 261 262 264 263 266 276 278 277 277 274 296 289 303 292 302 307 315 328 331 307 300 280 262
249 246 250 244 248 245 244 248 249 251 260 245 246 249 246 251 251 254 257 255 260 257 261 257 265 265 267 270 273 268 257 281 263 284 312 301 302 296 302 326 345 311 303 296 275
261 254 246 246 246 250 242 248 244 249 242 238 242 246 247 247 250 279 253 256 257 258 261 261 264 262 262 266 269 268 269 263 258 258 299 297 288 300 304 302 314 338 337 300 280
261 246 258 243 241 260 243 250 247 243 246 246 235 242 243 247 249 249 252 257 255 253 258 259 262 266 268 265 268 263 256 262 262 262 278 282 283 281 296 297 305 317 350 323 295
259 256 257 250 239 241 246 251 255 243 248 247 247 251 243 264 245 249 251 253 253 254 250 251 256 257 255 258 261 255 254 244 274 256 264 290 292 285 280 293 296 260 327 345 350
248 248 247 241 244 252 242 242 256 249 243 247 246 241 236 236 239 243 248 247 247 248 251 253 250 254 255 256 255 257 263 260 252 274 270 273 275 281 278 284 287 275 286 317 353
242 243 245 245 244 242 253 253 240 250 243 246 249 246 244 242 249 251 251 246 246 247 245 250 253 254 253 252 256 259 259 263 261 262 277 255 262 270 268 273 278 279 272 297 311
240 238 244 244 244 243 248 206 247 246 246 246 245 247 250 247 243 239 247 248 248 249 248 247 246 251 254 258 256 256 256 250 264 265 287 279 255 259 258 263 267 262 271 284 283
245 238 238 243 242 243 236 246 244 248 246 248 249 248 246 248 245 242 243 245 244 247 249 250 250 249 255 251 242 259 254 264 259 267 269 266 285 247 253 256 261 256 259 258 266
242 242 242 246 245 235 244 246 246 248 248 248 248 249 248 248 247 248 249 241 242 243 246 245 241 244 247 252 260 263 256 262 248 262 270 256 257 239 243 251 255 258 261 257 259
241 241 242 245 248 249 249 249 249 251 251 249 250 248 248 248 250 239 258 245 240 239 241 246 243 240 238 246 246 247 246 248 255 243 251 255 247 253 234 243 248 251 256 259 259
240 242 243 246 237 247 248 249 249 249 248 247 246 248 246 247 248 247 247 246 247 243 239 244 244 242 237 241 246 248 248 251 251 253 257 261 244 260 233 232 240 244 253 258 260
242 241 242 242 244 245 246 248 248 249 249 249 246 240 239 246 248 246 242 244 243 244 245 246 247 241 241 241 245 246 246 250 254 258 244 264 241 256 234 228 234 246 246 253 256
235 228 233 238 236 237 195 199 206 235 238 242 229 232 236 229 234 238 239 241 236 239 238 238 240 243 239 242 244 245 249 250 252 255 257 247 243 238 233 231 229 237 242 247 249